User: anonymous   Login
Location: Chacón
(10.5789°N, 66.9317°W)
Time: 17:17:44
(UTC+00:00)
Language:

Cosmos 1339 Rocket - Orbit

View from above orbital plane
View from above orbital plane
View from above satellite
View from above satellite

Ground track
Ground track

The orbit data is extracted from the following two-line orbital elements,

1 13066U 82012B   24195.78048603  .00000075  00000-0  60007-4 0  9995
2 13066  82.8964  86.9390 0042804 206.9127 215.3453 13.77282437130578
Epoch (UTC): 13 July 2024 18:43:53
Eccentricity: 0.0042804
inclination: 82.8964°
perigee height: 942 km
apogee height: 1005 km
right ascension of ascending node: 86.9390°
argument of perigee: 206.9127°
revolutions per day: 13.77282437
mean anomaly at epoch: 215.3453°
orbit number at epoch: 13057

The dashed part of the orbit path shows where the satellite is in the earth's shadow,  

DLR